Regional Weather Roundup
Issued by NWS

Home | Current Version | Previous Version | Graphics & Text | Print | Product List | Glossary Off
Versions: 1 2 3 4 5 6 7 8 9 10 11 12 13 14 15 16 17 18 19 20 21 22 23 24 25 26 27 28 29 30 31 32 33 34 35 36 37 38 39 40 41 42 43 44 45 46 47 48 49 50

000
ASUS43 KTOP 231908
RWRKS

WEATHER ROUNDUP FOR KANSAS
NATIONAL WEATHER SERVICE GOODLAND KS
200 PM CDT THU OCT 23 2014

NOTE:  "FAIR" INDICATES FEW OR NO CLOUDS BELOW 12,000 FEET WITH NO
SIGNIFICANT WEATHER AND/OR OBSTRUCTIONS TO VISIBILITY.

KSZ001>006-013>018-027>032-041>047-232000-
NORTHWEST KANSAS

CITY           SKY/WX    TMP DP  RH WIND       PRES   REMARKS
GOODLAND       SUNNY     72  46  39 S12       30.10F
HAYS           MOSUNNY   70  57  64 S9        30.08F
HILL CITY      MOSUNNY   67  57  70 SW12      30.08F
RUSSELL        MOSUNNY   73  58  59 SW12      30.05F
$$

KSZ061>065-074>080-084>089-232000-
SOUTHWEST KANSAS

CITY           SKY/WX    TMP DP  RH WIND       PRES   REMARKS
ELKHART          N/A     73  54  51 NE3         N/A
GARDEN CITY    MOSUNNY   68  57  68 VRB6      30.09F
GREAT BEND     MOSUNNY   72  59  64 S6        30.07F
LIBERAL        SUNNY     66  59  77 NE5       30.11F
PRATT          PTSUNNY   72  57  60 S3        30.09F
$$

KSZ066>073-081>083-090>101-232000-
SOUTHEAST KANSAS

CITY           SKY/WX    TMP DP  RH WIND       PRES   REMARKS
COFFEYVILLE    LGT RAIN  63  57  81 S13       30.11F
HUTCHINSON     PTSUNNY   73  59  61 S3        30.07F
MEDICINE LODGE   N/A     71  60  68 S3        30.06F
NEWTON         CLOUDY    66  57  72 SW7       30.10F
PARSONS        CLOUDY    63  58  83 S7        30.13F
WICHITA JABRA  PTSUNNY   69  61  75 S9        30.08F
WICHITA MCCONL PTSUNNY   70  64  81 S8        30.09F
$$

KSZ007>012-019>026-033>040-048>060-102>105-232000-
NORTHEAST KANSAS

CITY           SKY/WX    TMP DP  RH WIND       PRES   REMARKS
CONCORDIA      SUNNY     72  59  63 W7        30.06F
LAWRENCE       CLOUDY    63  60  90 S6        30.08F FOG
MANHATTAN      MOSUNNY   73  59  61 SW6       30.05F
MARYSVILLE     SUNNY     72  55  56 CALM      30.05F
OLATHE IND     CLOUDY    64  60  87 SW10G20   30.09F
OLATHE EXE     CLOUDY    63  60  90 SW8       30.08F
SALINA         PTSUNNY   74  59  59 S5        30.06F
TOPEKA BILLARD CLOUDY    69  62  78 SW3       30.07F
TOPEKA FORBES  CLOUDY    67  61  81 SW7       30.07F
$$



USA.gov is the U.S. government's official web portal to all federal, state and local government web resources and services.